When you browse on this site, cookies collect data to enhance your experience and personalize the content and advertising you see.
Visit our Privacy Policy to learn more. By continuing to use the site, you agree to this use of cookies and data.
  • In Italy
  • List of Countries
  • For 7 days
  • Water Temperature
  • Satellite Maps
  • Weather Map
  • Weather Widgets
  • user-avatar
    Login

    Hourly Weather Yelsk

    Today, 23 July, Tuesday

    Time Temperature Precipitation Wind Pressure Humidity
    00:00 +16°C° 0 mm 3 mps 747 mmHg 92%
    01:00 +16°C° 0 mm 3 mps 746 mmHg 93%
    02:00 +16°C° 0 mm 3 mps 746 mmHg 95%
    03:00 +14°C° 0 mm 3 mps 746 mmHg 96%
    04:00 +14°C° 0 mm 3 mps 746 mmHg 97%
    05:00 +14°C° 0 mm 3 mps 746 mmHg 98%
    06:00 +16°C° 0 mm 3 mps 746 mmHg 93%
    07:00 +17°C° 0 mm 3 mps 746 mmHg 88%
    08:00 +17°C° 0 mm 4 mps 746 mmHg 83%
    09:00 +19°C° 0 mm 4 mps 746 mmHg 77%
    10:00 +20°C° 0 mm 4 mps 746 mmHg 71%
    11:00 +21°C° 0 mm 4 mps 746 mmHg 65%
    12:00 +21°C° 0.1 mm 5 mps 745 mmHg 66%
    13:00 +21°C° 0.1 mm 5 mps 745 mmHg 67%
    14:00 +20°C° 0.1 mm 5 mps 745 mmHg 68%
    15:00 +19°C° 0.1 mm 5 mps 745 mmHg 73%
    16:00 +17°C° 0.1 mm 5 mps 745 mmHg 79%
    17:00 +17°C° 0.1 mm 4 mps 745 mmHg 85%
    18:00 +17°C° 0 mm 4 mps 745 mmHg 86%
    19:00 +17°C° 0 mm 3 mps 745 mmHg 88%
    20:00 +17°C° 0 mm 2 mps 744 mmHg 89%
    21:00 +17°C° 0 mm 3 mps 744 mmHg 89%
    22:00 +17°C° 0 mm 3 mps 745 mmHg 88%
    23:00 +17°C° 0 mm 3 mps 745 mmHg 88%

    Tomorrow, 24 July, Wednesday

    Time Temperature Precipitation Wind Pressure Humidity
    00:00 +16°C° 0 mm 3 mps 744 mmHg 91%
    01:00 +16°C° 0 mm 3 mps 744 mmHg 94%
    02:00 +16°C° 0 mm 3 mps 744 mmHg 97%
    03:00 +14°C° 0 mm 3 mps 744 mmHg 97%
    04:00 +14°C° 0 mm 3 mps 744 mmHg 97%
    05:00 +14°C° 0 mm 4 mps 744 mmHg 97%
    06:00 +15°C° 0 mm 4 mps 744 mmHg 91%
    07:00 +18°C° 0 mm 4 mps 744 mmHg 85%
    08:00 +19°C° 0 mm 4 mps 744 mmHg 78%
    09:00 +21°C° 0 mm 4 mps 744 mmHg 71%
    10:00 +23°C° 0 mm 5 mps 744 mmHg 64%
    11:00 +25°C° 0 mm 5 mps 745 mmHg 57%
    12:00 +25°C° 0.2 mm 5 mps 745 mmHg 56%
    13:00 +26°C° 0.2 mm 5 mps 744 mmHg 56%
    14:00 +26°C° 0.2 mm 5 mps 744 mmHg 55%
    15:00 +26°C° 0.2 mm 5 mps 745 mmHg 57%
    16:00 +25°C° 0.2 mm 4 mps 745 mmHg 58%
    17:00 +25°C° 0.2 mm 4 mps 745 mmHg 60%
    18:00 +22°C° 0.1 mm 3 mps 745 mmHg 66%
    19:00 +20°C° 0.1 mm 3 mps 745 mmHg 73%
    20:00 +19°C° 0.1 mm 2 mps 745 mmHg 79%
    21:00 +18°C° 0 mm 2 mps 745 mmHg 81%
    22:00 +17°C° 0 mm 2 mps 746 mmHg 84%
    23:00 +16°C° 0 mm 2 mps 746 mmHg 86%

    Day after tomorrow, 25 July, Thursday

    Time Temperature Precipitation Wind Pressure Humidity
    00:00 +16°C° 0 mm 2 mps 746 mmHg 88%
    01:00 +15°C° 0 mm 2 mps 746 mmHg 90%
    02:00 +15°C° 0 mm 2 mps 746 mmHg 92%
    03:00 +15°C° 0 mm 2 mps 746 mmHg 92%
    04:00 +13°C° 0 mm 3 mps 746 mmHg 92%
    05:00 +13°C° 0 mm 3 mps 746 mmHg 92%
    06:00 +16°C° 0 mm 3 mps 746 mmHg 84%
    07:00 +18°C° 0 mm 3 mps 747 mmHg 76%
    08:00 +19°C° 0 mm 3 mps 747 mmHg 69%
    09:00 +21°C° 0.1 mm 3 mps 747 mmHg 65%
    10:00 +22°C° 0.1 mm 3 mps 747 mmHg 60%
    11:00 +24°C° 0.1 mm 3 mps 747 mmHg 56%
    12:00 +24°C° 0.2 mm 3 mps 746 mmHg 58%
    13:00 +24°C° 0.2 mm 2 mps 746 mmHg 60%
    14:00 +24°C° 0.2 mm 2 mps 746 mmHg 62%
    15:00 +24°C° 0.1 mm 2 mps 745 mmHg 61%
    16:00 +25°C° 0.1 mm 3 mps 745 mmHg 60%
    17:00 +25°C° 0.1 mm 3 mps 745 mmHg 59%
    18:00 +22°C° 0.1 mm 3 mps 745 mmHg 67%
    19:00 +21°C° 0.1 mm 2 mps 745 mmHg 75%
    20:00 +19°C° 0.1 mm 2 mps 744 mmHg 82%
    21:00 +18°C° 0.4 mm 2 mps 744 mmHg 86%
    22:00 +18°C° 0.4 mm 1 mps 744 mmHg 90%
    23:00 +16°C° 0.4 mm 1 mps 744 mmHg 94%

    26 July, Friday

    Time Temperature Precipitation Wind Pressure Humidity
    00:00 +16°C° 0 mm 1 mps 744 mmHg 94%
    01:00 +16°C° 0 mm 1 mps 744 mmHg 95%
    02:00 +15°C° 0 mm 1 mps 744 mmHg 95%
    03:00 +15°C° 0 mm 1 mps 744 mmHg 96%
    04:00 +15°C° 0 mm 1 mps 744 mmHg 96%
    05:00 +15°C° 0 mm 1 mps 744 mmHg 96%
    06:00 +16°C° 0 mm 1 mps 744 mmHg 92%
    07:00 +19°C° 0 mm 1 mps 743 mmHg 87%
    08:00 +20°C° 0 mm 1 mps 743 mmHg 82%
    09:00 +21°C° 1 mm 1 mps 743 mmHg 78%
    10:00 +21°C° 1 mm 2 mps 743 mmHg 75%
    11:00 +23°C° 1 mm 2 mps 743 mmHg 71%
    12:00 +24°C° 1.4 mm 2 mps 743 mmHg 71%
    13:00 +24°C° 1.4 mm 2 mps 743 mmHg 70%
    14:00 +24°C° 1.4 mm 2 mps 743 mmHg 69%
    15:00 +24°C° 0.7 mm 2 mps 743 mmHg 71%
    16:00 +24°C° 0.7 mm 3 mps 742 mmHg 74%
    17:00 +22°C° 0.7 mm 3 mps 742 mmHg 76%
    18:00 +21°C° 0.2 mm 2 mps 742 mmHg 82%
    19:00 +20°C° 0.2 mm 2 mps 742 mmHg 87%
    20:00 +18°C° 0.2 mm 2 mps 742 mmHg 93%
    21:00 +18°C° 0.1 mm 2 mps 742 mmHg 94%
    22:00 +17°C° 0.1 mm 2 mps 742 mmHg 96%
    23:00 +17°C° 0.1 mm 2 mps 742 mmHg 97%

    27 July, Saturday

    Time Temperature Precipitation Wind Pressure Humidity
    00:00 +17°C° 0.1 mm 2 mps 742 mmHg 97%
    01:00 +17°C° 0.1 mm 2 mps 742 mmHg 98%
    02:00 +17°C° 0.1 mm 3 mps 742 mmHg 98%
    03:00 +17°C° 0.4 mm 2 mps 742 mmHg 98%
    04:00 +17°C° 0.4 mm 2 mps 742 mmHg 98%
    05:00 +17°C° 0.4 mm 2 mps 742 mmHg 97%
    06:00 +17°C° 1.3 mm 2 mps 742 mmHg 97%
    07:00 +17°C° 1.3 mm 2 mps 741 mmHg 97%
    08:00 +17°C° 1.3 mm 2 mps 741 mmHg 97%
    09:00 +17°C° 2.8 mm 2 mps 741 mmHg 97%
    10:00 +17°C° 2.8 mm 2 mps 741 mmHg 97%
    11:00 +17°C° 2.8 mm 2 mps 741 mmHg 97%
    12:00 +19°C° 0.7 mm 1 mps 741 mmHg 97%
    13:00 +19°C° 0.7 mm 1 mps 741 mmHg 97%
    14:00 +19°C° 0.7 mm 1 mps 740 mmHg 97%
    15:00 +20°C° 0.2 mm 1 mps 740 mmHg 94%
    16:00 +19°C° 0.2 mm 2 mps 740 mmHg 91%
    17:00 +20°C° 0.2 mm 2 mps 740 mmHg 88%
    18:00 +19°C° 0 mm 2 mps 740 mmHg 90%
    19:00 +19°C° 0 mm 2 mps 740 mmHg 93%
    20:00 +18°C° 0 mm 2 mps 740 mmHg 95%
    21:00 +18°C° 0.1 mm 2 mps 741 mmHg 96%
    22:00 +18°C° 0.1 mm 2 mps 741 mmHg 96%
    23:00 +17°C° 0.1 mm 2 mps 741 mmHg 97%

    28 July, Sunday

    Time Temperature Precipitation Wind Pressure Humidity
    00:00 +17°C° 0 mm 2 mps 741 mmHg 97%
    01:00 +17°C° 0 mm 2 mps 741 mmHg 97%
    02:00 +17°C° 0 mm 2 mps 741 mmHg 97%
    03:00 +16°C° 0 mm 2 mps 741 mmHg 97%
    04:00 +16°C° 0 mm 2 mps 741 mmHg 97%
    05:00 +16°C° 0 mm 2 mps 741 mmHg 97%
    06:00 +18°C° 0 mm 2 mps 741 mmHg 93%
    07:00 +19°C° 0 mm 2 mps 741 mmHg 89%
    08:00 +21°C° 0 mm 2 mps 741 mmHg 86%
    09:00 +22°C° 0.1 mm 3 mps 741 mmHg 77%
    10:00 +25°C° 0.1 mm 3 mps 741 mmHg 69%
    11:00 +27°C° 0.1 mm 4 mps 741 mmHg 60%
    12:00 +28°C° 0.1 mm 4 mps 741 mmHg 58%
    13:00 +28°C° 0.1 mm 4 mps 740 mmHg 56%
    14:00 +29°C° 0.1 mm 4 mps 740 mmHg 54%
    15:00 +28°C° 0.2 mm 4 mps 740 mmHg 58%
    16:00 +28°C° 0.2 mm 4 mps 740 mmHg 61%
    17:00 +27°C° 0.2 mm 4 mps 740 mmHg 65%
    18:00 +25°C° 0.3 mm 4 mps 740 mmHg 72%
    19:00 +22°C° 0.3 mm 3 mps 740 mmHg 79%
    20:00 +21°C° 0.3 mm 3 mps 740 mmHg 87%
    21:00 +20°C° 0.1 mm 3 mps 740 mmHg 88%
    22:00 +19°C° 0.1 mm 3 mps 741 mmHg 89%
    23:00 +18°C° 0.1 mm 3 mps 741 mmHg 91%
    Show more